Wind_Speed
11 12 12 13 13 12 12 13 14 16 18 18 16 17 20 23 23 22 19 20 22 23 21 20 19 20 22 22 22 24 24 23 23 24 24 24 24 24 24 24 24 24 24 25
10 11 12 13 14 14 14 15 15 17 18 18 16 18 19 22 22 22 21 22 22 22 21 21 21 21 21 22 23 24 24 24 25 24 25 25 25 25 25 25 24 23 23 23
10 12 14 16 17 15 15 16 17 17 19 18 17 19 21 22 23 22 20 22 24 23 22 21 20 21 22 23 23 23 24 25 25 25 25 25 25 25 25 24 23 23 23 23
12 14 15 16 16 17 16 16 17 16 17 18 18 19 22 23 22 22 21 22 24 23 22 21 21 20 21 21 22 22 24 24 25 25 26 25 25 25 24 24 23 23 23 24
12 14 15 15 15 16 15 16 17 17 17 18 18 19 21 23 24 24 24 24 23 22 23 22 21 20 21 21 22 23 24 24 24 25 25 25 25 24 23 24 24 23 23 24
12 13 14 14 15 16 16 16 16 17 17 20 19 20 23 25 25 25 24 22 21 21 22 22 22 22 22 23 24 24 24 24 25 25 25 25 25 25 24 24 24 23 23 24
12 14 14 14 14 15 15 15 15 17 19 21 19 21 24 24 25 23 21 21 20 19 21 22 22 22 23 24 24 24 25 26 26 25 25 26 26 25 25 25 25 24 23 24
12 13 14 14 14 15 15 16 16 18 19 19 18 21 24 23 24 22 21 21 20 20 21 22 23 22 22 24 25 26 27 28 28 28 27 26 26 26 26 26 26 25 24 24
12 14 13 14 15 14 15 16 16 18 18 18 19 22 23 22 21 20 21 21 21 22 23 23 23 23 23 24 25 26 27 28 28 27 26 26 27 27 26 26 26 25 25 25
13 14 14 13 14 15 16 16 17 18 17 17 18 21 21 21 19 19 20 21 21 22 23 23 24 25 25 25 25 26 27 27 27 27 27 27 27 27 27 27 26 26 25 24
13 13 13 13 14 15 16 16 17 18 18 18 19 20 20 19 19 18 20 21 21 22 24 24 25 25 25 25 26 26 27 27 27 27 27 27 27 27 27 26 25 25 25 25
13 13 13 13 14 15 18 18 18 20 20 19 21 22 21 20 19 19 20 22 22 23 24 25 25 25 25 26 27 27 27 27 27 27 27 27 27 27 27 26 26 26 26 25
15 15 14 13 14 15 17 18 18 20 21 21 22 21 20 20 20 20 21 23 24 24 25 25 25 25 26 27 27 28 28 28 28 28 27 27 27 27 26 26 26 26 25 26
15 16 16 15 14 14 16 17 18 19 22 22 22 22 22 21 22 23 23 23 23 24 25 26 26 26 27 27 28 28 28 28 28 28 28 27 27 26 27 27 26 25 25 25
14 14 15 15 15 15 16 16 17 19 21 21 21 22 23 22 23 24 24 25 24 24 25 26 25 26 26 27 28 28 28 28 28 28 27 27 26 26 26 26 25 25 24 24
12 13 14 13 13 14 15 15 16 18 19 20 20 21 23 24 24 24 23 24 24 23 23 24 25 25 25 26 27 27 27 28 27 27 27 26 25 25 25 25 24 24 23 23
11 11 12 10 11 12 12 13 14 16 19 21 22 22 22 23 24 23 23 24 24 24 24 23 24 24 25 27 26 26 27 27 27 27 26 26 25 25 25 25 24 24 23 23
8 8 7 7 8 10 10 12 14 14 16 19 21 22 22 22 23 23 23 23 23 23 23 24 24 24 25 25 25 25 25 25 25 24 25 25 25 24 24 23 23 23 22 21
5 5 6 7 7 8 8 10 12 14 16 18 19 20 21 21 21 23 23 23 22 22 22 22 23 23 24 24 24 24 24 23 22 22 21 22 22 22 21 21 20 19 19 19
4 5 6 7 7 9 9 10 11 13 15 16 18 18 19 21 21 21 21 21 22 21 21 20 21 21 22 22 23 22 21 20 20 20 20 19 18 18 18 17 16 16 16 16
4 5 6 6 7 8 9 10 12 13 14 15 16 17 17 18 19 19 19 19 19 20 19 19 19 19 20 21 21 21 20 19 19 18 18 17 16 16 15 14 14 13 13 14
4 5 6 6 7 8 9 10 11 13 14 15 15 16 17 17 17 17 17 17 17 17 17 18 17 18 18 18 18 17 17 17 16 15 15 14 14 13 12 12 11 11 11 11
4 4 5 6 7 8 9 11 11 12 13 14 14 15 15 16 16 15 14 15 15 16 16 16 16 16 16 16 15 14 14 14 14 14 13 12 11 10 10 9 9 9 8 8
4 5 6 7 8 9 10 11 11 12 13 13 13 13 14 15 14 14 14 14 14 14 14 14 14 15 14 13 12 12 12 12 11 11 11 10 9 8 8 8 8 7 6 5
4 5 6 7 8 9 10 11 12 12 13 13 13 13 13 13 12 12 12 12 12 12 11 11 11 12 11 11 10 10 10 10 10 9 9 8 7 6 5 5 4 4 4 3
5 5 6 7 8 8 9 10 11 12 12 12 12 12 12 12 11 10 10 10 10 10 9 9 9 9 9 8 8 8 8 8 7 7 6 5 4 3 2 2 2 1 0 0
Wind_Direction
237 237 233 236 240 230 230 237 242 241 247 258 258 256 257 255 259 265 265 265 268 268 264 263 263 270 275 278 279 280 283 285 286 286 287 288 287 286 286 285 278 273 269 266
239 243 237 236 236 229 231 233 238 242 241 246 247 251 254 259 263 263 263 268 271 266 264 264 266 273 278 279 281 282 283 285 286 287 288 290 287 287 289 287 282 276 272 270
241 244 239 237 235 231 228 228 230 237 243 249 249 249 252 257 263 266 265 267 271 270 269 271 272 275 279 278 279 282 284 285 286 287 287 289 287 287 286 284 282 280 276 271
243 246 245 241 236 232 229 229 228 231 242 247 256 252 256 258 262 263 265 266 268 270 272 272 272 275 278 280 281 282 284 286 286 287 288 287 286 286 285 284 282 277 277 274
237 245 247 242 237 232 226 230 233 232 237 242 251 254 256 259 259 263 264 267 269 270 271 272 273 275 277 280 284 284 285 286 286 287 288 287 285 286 286 284 281 279 279 278
238 248 247 241 235 232 226 227 234 236 239 244 247 253 256 257 265 264 264 267 268 271 272 273 274 275 277 280 283 284 285 284 286 286 285 286 287 288 286 283 283 281 281 281
239 246 250 242 238 235 228 225 237 244 246 248 246 248 253 258 267 268 267 268 269 270 271 275 275 275 278 281 283 285 285 285 285 284 284 285 287 287 287 287 287 286 284 281
240 239 245 245 240 235 232 231 236 249 253 251 248 251 258 262 262 267 270 270 271 274 276 277 276 276 280 282 284 286 286 284 283 284 284 285 287 287 286 287 287 287 285 283
240 239 241 245 244 238 233 231 240 253 258 255 250 252 257 258 259 261 267 272 275 276 276 276 277 279 282 284 285 285 286 283 282 282 283 286 288 287 287 286 285 284 283 282
250 246 242 240 244 245 243 236 235 250 262 264 261 261 260 263 269 267 273 279 279 277 277 278 278 279 282 284 286 286 287 287 287 286 286 287 287 287 287 286 285 284 283 283
254 250 238 236 241 243 242 243 242 247 254 263 271 273 273 273 272 274 281 280 278 280 282 281 280 281 281 284 286 288 289 290 289 287 286 286 286 285 286 285 285 285 285 285
257 254 245 242 246 239 238 237 242 246 247 255 264 273 273 273 273 274 279 279 279 280 282 281 281 281 282 284 286 287 288 288 288 287 285 284 284 284 284 285 285 285 285 285
252 254 251 248 253 245 241 240 243 248 250 254 260 270 272 278 278 278 278 278 278 281 282 281 281 282 284 285 286 287 287 287 287 286 285 284 282 282 283 283 283 284 285 285
253 253 254 255 261 252 246 242 248 251 255 257 261 268 271 273 278 280 281 281 280 281 282 281 280 283 285 286 287 287 287 286 286 285 284 283 282 282 283 282 283 284 286 286
256 257 260 259 260 258 255 252 252 254 256 259 264 266 272 274 278 282 282 281 281 283 282 282 284 284 285 287 288 288 287 287 286 285 284 283 282 283 283 283 283 284 285 286
260 259 260 263 260 261 255 252 253 257 260 263 264 269 278 281 281 283 283 283 285 286 286 287 286 288 289 290 290 289 288 287 286 285 284 283 282 283 284 284 283 284 285 284
268 260 260 266 258 263 259 260 262 259 261 265 269 274 278 279 280 282 283 284 285 286 288 289 289 290 291 291 290 290 289 287 285 283 283 283 282 282 283 283 282 283 283 283
275 258 254 252 259 266 266 261 265 272 272 272 274 275 280 281 280 283 284 284 284 288 288 288 290 292 293 294 293 292 292 290 288 286 285 283 281 282 284 283 281 280 280 281
272 261 255 265 264 270 270 275 273 271 276 277 281 282 284 286 286 286 284 284 284 286 287 288 291 292 293 294 295 295 292 290 289 289 288 287 285 284 284 283 281 279 278 277
264 257 261 276 276 278 284 286 284 285 287 289 289 289 291 293 291 288 284 283 283 286 290 290 292 293 294 295 295 295 293 291 291 292 290 290 289 288 286 284 281 280 279 279
267 265 267 271 274 287 289 296 298 295 297 294 293 295 296 297 298 294 290 288 287 288 293 295 295 296 297 297 296 295 294 292 293 294 291 290 291 290 287 284 283 282 281 278
265 273 278 285 285 289 299 300 301 303 304 302 300 302 303 305 307 303 296 293 293 293 294 295 296 297 299 299 298 298 297 295 295 296 294 293 293 292 289 283 281 281 277 274
256 275 294 291 291 299 300 305 304 308 309 309 307 307 309 309 309 309 303 298 296 296 297 297 298 300 300 300 302 302 301 299 298 300 298 295 293 286 285 285 283 283 280 275
285 287 289 292 295 303 304 310 312 312 312 314 314 313 313 314 313 313 311 306 304 304 303 302 301 303 303 305 304 303 303 305 306 306 303 298 292 288 283 284 284 286 282 278
296 294 299 302 305 309 313 316 320 321 318 316 318 318 318 318 320 320 319 315 314 314 313 308 307 309 311 311 307 307 308 310 311 311 310 303 294 295 294 296 293 290 289 286
293 299 308 311 311 312 317 321 325 328 328 326 325 328 329 329 331 334 332 331 329 328 327 324 321 322 323 321 320 322 320 321 319 318 316 312 306 302 295 297 307 316 340 93
Height
5837 5839 5841 5843 5845 5847 5850 5851 5853 5854 5854 5852 5852 5853 5851 5851 5851 5850 5849 5850 5851 5851 5852 5850 5850 5853 5853 5854 5854 5853 5853 5852 5851 5851 5850 5849 5848 5847 5846 5845 5844 5844 5844 5844
5836 5837 5839 5840 5843 5844 5846 5848 5850 5851 5849 5850 5850 5850 5850 5847 5847 5848 5847 5846 5846 5846 5847 5848 5848 5848 5848 5849 5849 5849 5848 5847 5846 5846 5845 5844 5843 5842 5841 5840 5839 5839 5839 5839
5834 5836 5836 5837 5839 5841 5843 5845 5847 5848 5846 5846 5847 5848 5846 5845 5844 5844 5844 5843 5843 5843 5843 5843 5843 5843 5844 5844 5844 5844 5843 5842 5841 5841 5840 5839 5838 5837 5837 5836 5835 5835 5834 5834
5831 5832 5832 5834 5836 5837 5839 5841 5842 5843 5844 5843 5845 5844 5843 5842 5841 5840 5840 5839 5839 5839 5839 5839 5839 5839 5839 5839 5839 5839 5838 5837 5836 5835 5835 5834 5833 5833 5832 5831 5830 5830 5830 5829
5828 5829 5829 5831 5832 5833 5835 5838 5838 5839 5840 5840 5841 5841 5840 5837 5836 5836 5836 5835 5835 5835 5835 5835 5835 5835 5835 5835 5835 5834 5833 5832 5831 5830 5829 5828 5828 5827 5826 5825 5824 5824 5824 5824
5825 5825 5826 5828 5828 5830 5831 5833 5834 5835 5836 5836 5837 5837 5835 5832 5832 5831 5831 5831 5830 5831 5831 5831 5831 5831 5831 5831 5830 5829 5828 5827 5827 5825 5824 5823 5822 5822 5821 5820 5819 5818 5819 5819
5821 5823 5823 5824 5825 5827 5828 5830 5831 5831 5831 5832 5832 5831 5831 5829 5829 5827 5825 5824 5826 5826 5826 5826 5826 5826 5826 5825 5825 5824 5823 5822 5821 5820 5819 5818 5817 5816 5815 5814 5813 5813 5813 5813
5818 5820 5820 5821 5822 5824 5825 5827 5828 5828 5828 5827 5827 5827 5826 5824 5823 5823 5822 5821 5822 5823 5822 5822 5821 5821 5821 5820 5819 5818 5817 5816 5815 5814 5813 5812 5811 5810 5809 5808 5807 5807 5807 5806
5815 5816 5817 5818 5819 5820 5822 5823 5824 5824 5823 5823 5822 5822 5820 5817 5817 5818 5818 5818 5818 5818 5817 5817 5817 5817 5816 5815 5814 5813 5811 5810 5809 5808 5807 5806 5805 5804 5803 5802 5801 5801 5800 5800
5811 5812 5814 5814 5816 5817 5818 5819 5820 5820 5819 5818 5818 5816 5813 5812 5813 5813 5814 5815 5814 5813 5813 5812 5812 5811 5811 5810 5808 5807 5805 5804 5803 5802 5801 5800 5799 5797 5796 5796 5795 5794 5794 5793
5807 5807 5809 5811 5812 5814 5815 5816 5816 5816 5816 5815 5814 5814 5810 5809 5810 5810 5809 5810 5810 5809 5808 5807 5806 5805 5805 5804 5803 5801 5799 5798 5796 5795 5794 5793 5792 5791 5790 5789 5788 5788 5787 5786
5805 5804 5805 5807 5808 5809 5810 5811 5812 5812 5812 5812 5810 5811 5808 5806 5805 5805 5805 5805 5805 5804 5803 5802 5800 5799 5798 5797 5796 5794 5793 5791 5790 5789 5788 5787 5785 5784 5783 5782 5781 5781 5780 5779
5801 5802 5802 5803 5806 5806 5806 5807 5807 5807 5807 5807 5807 5808 5804 5802 5801 5800 5800 5800 5799 5798 5797 5796 5794 5794 5792 5791 5789 5788 5786 5784 5783 5782 5781 5780 5778 5777 5776 5775 5775 5774 5773 5772
5797 5798 5799 5799 5799 5800 5801 5802 5802 5803 5803 5803 5803 5802 5800 5799 5798 5797 5796 5795 5794 5793 5792 5790 5788 5787 5786 5784 5782 5780 5779 5777 5776 5775 5773 5772 5771 5770 5769 5768 5767 5766 5766 5765
5794 5794 5794 5794 5795 5795 5796 5798 5798 5798 5798 5799 5798 5796 5795 5794 5794 5793 5792 5790 5789 5788 5786 5785 5782 5781 5779 5778 5776 5773 5771 5770 5768 5767 5766 5765 5764 5763 5762 5761 5760 5759 5759 5758
5791 5791 5791 5791 5792 5791 5792 5793 5793 5794 5794 5794 5793 5793 5791 5790 5789 5788 5787 5785 5783 5782 5780 5778 5777 5775 5773 5771 5769 5766 5765 5763 5761 5760 5759 5758 5757 5756 5755 5754 5753 5752 5752 5751
5788 5787 5787 5787 5788 5788 5789 5790 5790 5790 5790 5789 5789 5789 5787 5786 5784 5783 5781 5780 5778 5776 5774 5772 5771 5769 5767 5765 5762 5760 5758 5756 5754 5753 5751 5750 5749 5749 5748 5747 5746 5746 5745 5745
5785 5785 5785 5785 5787 5786 5789 5786 5786 5786 5786 5785 5784 5783 5782 5780 5779 5777 5775 5774 5772 5770 5768 5767 5765 5763 5761 5758 5755 5753 5751 5749 5747 5745 5744 5743 5742 5741 5741 5740 5739 5739 5739 5738
5784 5784 5784 5784 5784 5784 5785 5784 5784 5783 5783 5781 5780 5778 5776 5774 5772 5771 5770 5768 5766 5764 5763 5761 5759 5757 5755 5752 5749 5747 5744 5743 5741 5739 5738 5737 5736 5735 5734 5733 5733 5733 5733 5733
5784 5784 5784 5783 5783 5782 5784 5782 5781 5781 5780 5778 5775 5774 5772 5770 5768 5766 5764 5762 5760 5759 5757 5756 5754 5751 5749 5746 5744 5741 5739 5737 5736 5734 5733 5731 5730 5729 5728 5728 5728 5728 5728 5728
5784 5783 5783 5782 5781 5781 5781 5780 5780 5779 5778 5774 5771 5770 5768 5765 5763 5761 5759 5757 5756 5754 5752 5751 5749 5746 5744 5741 5738 5736 5734 5732 5731 5729 5728 5726 5725 5725 5724 5724 5724 5724 5724 5724
5783 5783 5782 5781 5781 5782 5780 5778 5778 5776 5773 5770 5768 5766 5763 5761 5758 5756 5754 5753 5751 5749 5748 5746 5744 5741 5739 5736 5734 5731 5729 5728 5726 5725 5724 5722 5722 5721 5720 5720 5720 5720 5721 5721
5783 5782 5781 5781 5782 5779 5778 5776 5775 5772 5770 5768 5765 5763 5760 5757 5755 5753 5751 5749 5747 5745 5743 5741 5739 5737 5735 5732 5730 5728 5726 5724 5723 5722 5720 5719 5719 5718 5718 5718 5718 5718 5718 5718
5783 5782 5781 5780 5779 5778 5776 5774 5772 5770 5768 5765 5762 5760 5757 5755 5752 5750 5748 5745 5744 5742 5740 5737 5735 5733 5731 5729 5727 5725 5724 5722 5720 5719 5718 5717 5716 5716 5716 5716 5716 5716 5717 5717
5782 5781 5780 5779 5778 5776 5774 5772 5770 5768 5765 5763 5760 5758 5755 5752 5750 5748 5745 5743 5741 5739 5737 5734 5732 5731 5729 5727 5725 5723 5722 5720 5719 5718 5716 5716 5715 5715 5715 5715 5715 5715 5716 5716
5781 5781 5780 5779 5777 5775 5774 5771 5769 5766 5764 5761 5758 5756 5753 5751 5748 5746 5743 5741 5739 5737 5735 5732 5730 5729 5727 5725 5724 5722 5720 5719 5718 5717 5716 5715 5715 5714 5714 5715 5715 5715 5716 5716